User: anonymous
Location: Frydek-Mistek
(49.6830°N, 18.3330°E)
Time: 01:40:37
(UTC+02:00)
Language:

Courier 1B Rocket - Orbit

View from above orbital plane
View from above orbital plane
View from above satellite
View from above satellite

Ground track
Ground track

The orbit data is extracted from the following two-line orbital elements,

1 00059U 60013B   14212.79373702  .00000103  00000-0  16136-4 0  9403
2 00059 028.2503 089.7273 0189371 261.0913 096.8150 13.52895661656049
Epoch (UTC): 31 July 2014 19:02:58
Eccentricity: 0.0189371
inclination: 28.2503°
perigee height: 921 km
apogee height: 1202 km
right ascension of ascending node: 89.7273°
argument of perigee: 261.0913°
revolutions per day: 13.52895661
mean anomaly at epoch: 96.8150°
orbit number at epoch: 65604

The dashed part of the orbit path shows where the satellite is in the earth's shadow,  

DLR